• In Deutschland
  • Länderverzeichnis
  • Für 7 Tage
  • Wassertemperatur
  • Satellitenkarten
  • Wetterkarte
  • Widgets
  • user-avatar
    Anmelden

    Stündliche Wetter Lowetsch

    Heute, 20 August, Sonntag

    Zeit Temperatur Niederschläge Wind Luftdruck Luftfeuchtigkeit
    00:00 +23°C° 0 mm 1 m/S 737 mmHg 42%
    01:00 +23°C° 0 mm 1 m/S 737 mmHg 43%
    02:00 +23°C° 0 mm 2 m/S 737 mmHg 45%
    03:00 +21°C° 0 mm 2 m/S 737 mmHg 46%
    04:00 +22°C° 0 mm 1 m/S 737 mmHg 48%
    05:00 +21°C° 0 mm 1 m/S 737 mmHg 49%
    06:00 +23°C° 0 mm 1 m/S 737 mmHg 45%
    07:00 +25°C° 0 mm 1 m/S 737 mmHg 42%
    08:00 +27°C° 0 mm 1 m/S 737 mmHg 39%
    09:00 +28°C° 0 mm 2 m/S 737 mmHg 34%
    10:00 +30°C° 0 mm 2 m/S 737 mmHg 30%
    11:00 +33°C° 0 mm 3 m/S 736 mmHg 26%
    12:00 +33°C° 0 mm 3 m/S 736 mmHg 25%
    13:00 +34°C° 0 mm 3 m/S 735 mmHg 24%
    14:00 +35°C° 0 mm 3 m/S 735 mmHg 23%
    15:00 +35°C° 0 mm 2 m/S 734 mmHg 23%
    16:00 +34°C° 0 mm 2 m/S 734 mmHg 24%
    17:00 +34°C° 0 mm 2 m/S 734 mmHg 24%
    18:00 +31°C° 0 mm 2 m/S 734 mmHg 29%
    19:00 +28°C° 0 mm 1 m/S 733 mmHg 34%
    20:00 +25°C° 0 mm 1 m/S 733 mmHg 39%
    21:00 +25°C° 0 mm 1 m/S 734 mmHg 39%
    22:00 +24°C° 0 mm 1 m/S 734 mmHg 40%
    23:00 +24°C° 0 mm 1 m/S 734 mmHg 41%

    Morgen, 21 August, Montag

    Zeit Temperatur Niederschläge Wind Luftdruck Luftfeuchtigkeit
    00:00 +23°C° 0 mm 2 m/S 734 mmHg 45%
    01:00 +23°C° 0 mm 2 m/S 734 mmHg 50%
    02:00 +21°C° 0 mm 3 m/S 734 mmHg 55%
    03:00 +21°C° 0 mm 3 m/S 734 mmHg 61%
    04:00 +20°C° 0 mm 3 m/S 734 mmHg 68%
    05:00 +20°C° 0 mm 4 m/S 734 mmHg 75%
    06:00 +21°C° 0 mm 4 m/S 734 mmHg 71%
    07:00 +21°C° 0 mm 5 m/S 734 mmHg 67%
    08:00 +22°C° 0 mm 5 m/S 734 mmHg 64%
    09:00 +25°C° 0 mm 5 m/S 734 mmHg 60%
    10:00 +26°C° 0 mm 5 m/S 734 mmHg 55%
    11:00 +27°C° 0 mm 5 m/S 734 mmHg 51%
    12:00 +27°C° 0,3 mm 6 m/S 734 mmHg 52%
    13:00 +27°C° 0,3 mm 6 m/S 734 mmHg 53%
    14:00 +27°C° 0,3 mm 6 m/S 734 mmHg 53%
    15:00 +27°C° 0,4 mm 6 m/S 733 mmHg 53%
    16:00 +26°C° 0,4 mm 6 m/S 733 mmHg 53%
    17:00 +26°C° 0,4 mm 5 m/S 733 mmHg 53%
    18:00 +25°C° 0,3 mm 5 m/S 734 mmHg 56%
    19:00 +22°C° 0,3 mm 4 m/S 734 mmHg 59%
    20:00 +21°C° 0,3 mm 4 m/S 734 mmHg 62%
    21:00 +20°C° 0,1 mm 3 m/S 734 mmHg 63%
    22:00 +20°C° 0,1 mm 3 m/S 734 mmHg 65%
    23:00 +19°C° 0,1 mm 3 m/S 735 mmHg 66%

    übermorgen, 22 August, Dienstag

    Zeit Temperatur Niederschläge Wind Luftdruck Luftfeuchtigkeit
    00:00 +18°C° 0 mm 3 m/S 735 mmHg 66%
    01:00 +18°C° 0 mm 3 m/S 735 mmHg 67%
    02:00 +18°C° 0 mm 3 m/S 735 mmHg 67%
    03:00 +17°C° 0 mm 3 m/S 735 mmHg 67%
    04:00 +17°C° 0 mm 3 m/S 735 mmHg 66%
    05:00 +17°C° 0 mm 3 m/S 735 mmHg 66%
    06:00 +18°C° 0 mm 3 m/S 735 mmHg 62%
    07:00 +19°C° 0 mm 3 m/S 736 mmHg 58%
    08:00 +20°C° 0 mm 4 m/S 736 mmHg 54%
    09:00 +21°C° 0 mm 4 m/S 736 mmHg 51%
    10:00 +22°C° 0 mm 4 m/S 736 mmHg 47%
    11:00 +25°C° 0 mm 3 m/S 737 mmHg 44%
    12:00 +25°C° 0 mm 3 m/S 736 mmHg 41%
    13:00 +26°C° 0 mm 3 m/S 736 mmHg 39%
    14:00 +27°C° 0 mm 3 m/S 736 mmHg 36%
    15:00 +27°C° 0 mm 3 m/S 736 mmHg 35%
    16:00 +27°C° 0 mm 3 m/S 736 mmHg 34%
    17:00 +27°C° 0 mm 3 m/S 736 mmHg 33%
    18:00 +25°C° 0 mm 2 m/S 736 mmHg 38%
    19:00 +23°C° 0 mm 2 m/S 736 mmHg 43%
    20:00 +20°C° 0 mm 2 m/S 736 mmHg 48%
    21:00 +19°C° 0 mm 2 m/S 736 mmHg 48%
    22:00 +19°C° 0 mm 2 m/S 736 mmHg 47%
    23:00 +18°C° 0 mm 3 m/S 737 mmHg 47%

    23 August, Mittwoch

    Zeit Temperatur Niederschläge Wind Luftdruck Luftfeuchtigkeit
    00:00 +18°C° 0 mm 3 m/S 737 mmHg 49%
    01:00 +17°C° 0 mm 3 m/S 737 mmHg 50%
    02:00 +17°C° 0 mm 3 m/S 737 mmHg 52%
    03:00 +16°C° 0 mm 3 m/S 737 mmHg 54%
    04:00 +16°C° 0 mm 3 m/S 737 mmHg 55%
    05:00 +16°C° 0 mm 3 m/S 737 mmHg 57%
    06:00 +17°C° 0 mm 3 m/S 737 mmHg 53%
    07:00 +19°C° 0 mm 3 m/S 737 mmHg 49%
    08:00 +21°C° 0 mm 4 m/S 738 mmHg 44%
    09:00 +22°C° 0 mm 4 m/S 738 mmHg 40%
    10:00 +25°C° 0 mm 4 m/S 738 mmHg 35%
    11:00 +27°C° 0 mm 4 m/S 738 mmHg 30%
    12:00 +28°C° 0 mm 4 m/S 738 mmHg 28%
    13:00 +28°C° 0 mm 4 m/S 738 mmHg 25%
    14:00 +29°C° 0 mm 4 m/S 737 mmHg 23%
    15:00 +29°C° 0 mm 4 m/S 737 mmHg 23%
    16:00 +29°C° 0 mm 4 m/S 737 mmHg 23%
    17:00 +29°C° 0 mm 4 m/S 737 mmHg 23%
    18:00 +26°C° 0 mm 3 m/S 737 mmHg 28%
    19:00 +24°C° 0 mm 2 m/S 738 mmHg 33%
    20:00 +20°C° 0 mm 2 m/S 738 mmHg 37%
    21:00 +20°C° 0 mm 2 m/S 738 mmHg 39%
    22:00 +19°C° 0 mm 2 m/S 738 mmHg 40%
    23:00 +18°C° 0 mm 2 m/S 739 mmHg 41%

    24 August, Donnerstag

    Zeit Temperatur Niederschläge Wind Luftdruck Luftfeuchtigkeit
    00:00 +18°C° 0 mm 2 m/S 739 mmHg 43%
    01:00 +18°C° 0 mm 2 m/S 739 mmHg 44%
    02:00 +17°C° 0 mm 2 m/S 739 mmHg 45%
    03:00 +17°C° 0 mm 2 m/S 739 mmHg 47%
    04:00 +17°C° 0 mm 2 m/S 739 mmHg 48%
    05:00 +16°C° 0 mm 2 m/S 739 mmHg 50%
    06:00 +19°C° 0 mm 1 m/S 740 mmHg 47%
    07:00 +21°C° 0 mm 1 m/S 740 mmHg 43%
    08:00 +23°C° 0 mm 1 m/S 740 mmHg 40%
    09:00 +24°C° 0 mm 1 m/S 741 mmHg 36%
    10:00 +26°C° 0 mm 1 m/S 741 mmHg 32%
    11:00 +28°C° 0 mm 2 m/S 741 mmHg 28%
    12:00 +29°C° 0 mm 2 m/S 741 mmHg 26%
    13:00 +30°C° 0 mm 2 m/S 740 mmHg 24%
    14:00 +31°C° 0 mm 2 m/S 740 mmHg 22%
    15:00 +30°C° 0 mm 2 m/S 740 mmHg 22%
    16:00 +30°C° 0 mm 2 m/S 740 mmHg 22%
    17:00 +30°C° 0 mm 2 m/S 740 mmHg 22%
    18:00 +27°C° 0 mm 1 m/S 740 mmHg 26%
    19:00 +25°C° 0 mm 1 m/S 740 mmHg 31%
    20:00 +22°C° 0 mm 1 m/S 740 mmHg 35%
    21:00 +21°C° 0 mm 1 m/S 740 mmHg 37%
    22:00 +21°C° 0 mm 1 m/S 741 mmHg 38%
    23:00 +20°C° 0 mm 1 m/S 741 mmHg 39%

    25 August, Freitag

    Zeit Temperatur Niederschläge Wind Luftdruck Luftfeuchtigkeit
    00:00 +20°C° 0 mm 1 m/S 741 mmHg 42%
    01:00 +18°C° 0 mm 2 m/S 741 mmHg 45%
    02:00 +18°C° 0 mm 2 m/S 741 mmHg 48%
    03:00 +17°C° 0 mm 2 m/S 741 mmHg 51%
    04:00 +17°C° 0 mm 2 m/S 741 mmHg 54%
    05:00 +17°C° 0 mm 2 m/S 741 mmHg 57%
    06:00 +20°C° 0 mm 1 m/S 742 mmHg 53%
    07:00 +21°C° 0 mm 1 m/S 742 mmHg 49%
    08:00 +23°C° 0 mm 1 m/S 742 mmHg 44%
    09:00 +25°C° 0 mm 1 m/S 742 mmHg 39%
    10:00 +28°C° 0 mm 2 m/S 742 mmHg 33%
    11:00 +30°C° 0 mm 2 m/S 742 mmHg 27%
    12:00 +31°C° 0 mm 2 m/S 742 mmHg 25%
    13:00 +31°C° 0 mm 2 m/S 741 mmHg 23%
    14:00 +33°C° 0 mm 3 m/S 741 mmHg 21%
    15:00 +33°C° 0 mm 3 m/S 741 mmHg 22%
    16:00 +33°C° 0 mm 3 m/S 741 mmHg 22%
    17:00 +33°C° 0 mm 3 m/S 740 mmHg 23%
    18:00 +29°C° 0 mm 3 m/S 740 mmHg 28%
    19:00 +26°C° 0 mm 3 m/S 741 mmHg 33%
    20:00 +24°C° 0 mm 3 m/S 741 mmHg 38%
    21:00 +22°C° 0 mm 3 m/S 741 mmHg 41%
    22:00 +21°C° 0 mm 3 m/S 741 mmHg 43%
    23:00 +20°C° 0 mm 3 m/S 741 mmHg 46%
    Mehr zeigen